Truth Or Consequences, NM

3:28 PM MST on January 18, 2018 (GMT -0700)
Truth Or Consequences Municipal

Weather History for KTCS - March, 2013

Change the Weather History Date:

Wednesday, March 13, 2013

  Actual Average Record
Temperature  
Mean Temperature 55 °F -  
Max Temperature 73 °F 65 °F 80 °F (2002)
Min Temperature 37 °F 38 °F 25 °F (2006)
Degree Days  
Heating Degree Days 10    
Month to date heating degree days 167  
Since 1 July heating degree days 2710  
Cooling Degree Days 0    
Month to date cooling degree days 0  
Year to date cooling degree days 0  
Growing Degree Days 4 (Base 50)    
Moisture  
Dew Point 13 °F    
Average Humidity 25    
Maximum Humidity 40    
Minimum Humidity 9    
Precipitation  
Precipitation 0.00 in - 0.09 in (2009)
Month to date precipitation 0.06  
Year to date precipitation 0.14  
Sea Level Pressure  
Sea Level Pressure 30.14 in    
Wind  
Wind Speed 6 mph (WSW)    
Max Wind Speed 15 mph    
Max Gust Speed 20 mph    
Visibility 10 miles    
Events      
T = Trace of Precipitation, MM = Missing Value Source: NWS Daily Summary

Daily Weather History Graph

Daily Weather History Graph

Search for Another Location

Airport or City:

Trip Planner

Search our weather history database for the weather conditions in past years. The results will help you decide how hot, cold, wet, or windy it might be!

Date:

Astronomy

Mar. 13, 2013 Rise Set
Actual Time 7:21 AM MDT 7:15 PM MDT
Civil Twilight 6:56 AM MDT 7:40 PM MDT
Nautical Twilight 6:28 AM MDT 8:09 PM MDT
Astronomical Twilight 5:59 AM MDT 8:38 PM MDT
Moon 8:10 AM MDT (3/13) 9:25 PM MDT (3/13)
Length of Visible Light 12h 43m
Length of Day
11h 54m
Waxing Crescent, 4% of the Moon is Illuminated
Mar 13
Waxing Crescent
Mar 19
First Quarter
Mar 27
Full
Apr 2
Last Quarter
Apr 10
New

Hourly Weather History & Observations

Time (MDT) Temp. Windchill Dew Point Humidity Pressure Visibility Wind Dir Wind Speed Gust Speed Precip Events Conditions
12:53 AM 45.0 °F 41.2 °F 12.9 °F 27% 30.13 in 10.0 mi WNW 6.9 mph - N/A   Clear
1:53 AM 44.1 °F 40.1 °F 12.9 °F 28% 30.14 in 10.0 mi WNW 6.9 mph - N/A   Clear
2:53 AM 43.0 °F - 12.9 °F 30% 30.14 in 10.0 mi Calm Calm - N/A   Clear
3:53 AM 42.1 °F 37.1 °F 14.0 °F 32% 30.14 in 10.0 mi West 8.1 mph - N/A   Clear
4:53 AM 43.0 °F 39.5 °F 15.1 °F 32% 30.15 in 10.0 mi NW 5.8 mph - N/A   Clear
5:53 AM 37.9 °F 32.1 °F 15.1 °F 39% 30.19 in 10.0 mi West 8.1 mph - N/A   Clear
6:53 AM 39.9 °F 35.1 °F 16.0 °F 38% 30.19 in 10.0 mi WNW 6.9 mph - N/A   Clear
7:53 AM 39.0 °F 32.8 °F 15.1 °F 38% 30.22 in 10.0 mi WNW 9.2 mph - N/A   Clear
8:53 AM 48.0 °F - 17.1 °F 29% 30.22 in 10.0 mi WNW 6.9 mph - N/A   Clear
9:53 AM 55.0 °F - 18.0 °F 23% 30.22 in 10.0 mi Calm Calm - N/A   Clear
10:53 AM 59.0 °F - 18.0 °F 20% 30.22 in 10.0 mi Calm Calm - N/A   Clear
11:53 AM 63.0 °F - 17.1 °F 17% 30.21 in 10.0 mi Variable 5.8 mph - N/A   Clear
12:53 PM 66.9 °F - 19.0 °F 16% 30.18 in 10.0 mi SSE 8.1 mph - N/A   Clear
1:53 PM 69.1 °F - 17.1 °F 14% 30.14 in 10.0 mi ESE 6.9 mph - N/A   Clear
2:53 PM 72.0 °F - 12.9 °F 10% 30.10 in 10.0 mi South 8.1 mph 16.1 mph N/A   Clear
3:53 PM 71.1 °F - 10.0 °F 9% 30.09 in 10.0 mi SW 5.8 mph - N/A   Clear
4:53 PM 72.0 °F - 10.0 °F 9% 30.06 in 10.0 mi SW 8.1 mph - N/A   Clear
5:53 PM 72.0 °F - 12.0 °F 10% 30.07 in 10.0 mi South 10.4 mph - N/A   Clear
6:53 PM 71.1 °F - 12.0 °F 10% 30.07 in 10.0 mi South 10.4 mph - N/A   Clear
7:53 PM 64.9 °F - 10.0 °F 12% 30.10 in 10.0 mi South 5.8 mph - N/A   Clear
8:53 PM 62.1 °F - 10.0 °F 13% 30.09 in 10.0 mi SSW 5.8 mph - N/A   Clear
9:53 PM 59.0 °F - 9.0 °F 14% 30.10 in 10.0 mi SW 4.6 mph - N/A   Clear
10:53 PM 59.0 °F - 9.0 °F 14% 30.11 in 10.0 mi Calm Calm - N/A   Clear
11:53 PM 48.9 °F - 7.0 °F 18% 30.13 in 10.0 mi West 6.9 mph - N/A   Clear